Daviess Cnty AP, Washington,, IN

5:05 AM EDT on July 28, 2017 (GMT -0400)
Daviess County

Weather History for KDCY - January, 2014

Change the Weather History Date:

Saturday, January 4, 2014

  Actual Average (KLWV) Record (KLWV)
Temperature  
Mean Temperature 30 °F -  
Max Temperature 39 °F 38 °F 66 °F (1997)
Min Temperature 21 °F 23 °F 0 °F (1999)
Degree Days  
Heating Degree Days 35    
Moisture  
Dew Point 19 °F    
Average Humidity 63    
Maximum Humidity 82    
Minimum Humidity 50    
Precipitation  
Precipitation 0.00 in - - ()
Sea Level Pressure  
Sea Level Pressure 30.08 in    
Wind  
Wind Speed 13 mph (South)    
Max Wind Speed 24 mph    
Max Gust Speed 33 mph    
Visibility 10 miles    
Events      
Averages and records for this station are not official NWS values.
T = Trace of Precipitation, MM = Missing Value Source: NWS Daily Summary

Daily Weather History Graph

Daily Weather History Graph

Search for Another Location

Airport or City:

Trip Planner

Search our weather history database for the weather conditions in past years. The results will help you decide how hot, cold, wet, or windy it might be!

Date:

Astronomy

Jan. 04, 2014 Rise Set
Actual Time 8:06 AM EST 5:40 PM EST
Civil Twilight 7:37 AM EST 6:10 PM EST
Nautical Twilight 7:04 AM EST 6:43 PM EST
Astronomical Twilight 6:31 AM EST 7:15 PM EST
Moon 10:14 AM EST (1/4) 9:56 PM EST (1/4)
Length of Visible Light 10h 32m
Length of Day
9h 33m
Waxing Crescent, 15% of the Moon is Illuminated
Jan 4
Waxing Crescent
Jan 7
First Quarter
Jan 15
Full
Jan 24
Last Quarter
Jan 30
New

Hourly Weather History & Observations

Time (EST) Temp. Windchill Dew Point Humidity Pressure Visibility Wind Dir Wind Speed Gust Speed Precip Events Conditions
12:15 AM 21.0 °F 8.6 °F 12.2 °F 69% 30.19 in 10.0 mi South 12.7 mph - N/A   Clear
12:35 AM 21.0 °F 9.9 °F 12.2 °F 69% 30.19 in 10.0 mi South 10.4 mph 17.3 mph N/A   Clear
12:55 AM 21.0 °F 8.6 °F 12.6 °F 70% 30.18 in 10.0 mi South 12.7 mph - N/A   Clear
1:15 AM 21.0 °F 9.9 °F 12.2 °F 69% 30.18 in 10.0 mi South 10.4 mph - N/A   Clear
1:35 AM 21.2 °F 9.5 °F 12.6 °F 69% 30.17 in 10.0 mi South 11.5 mph - N/A   Clear
1:55 AM 21.0 °F 9.3 °F 12.6 °F 70% 30.17 in 10.0 mi South 11.5 mph - N/A   Clear
2:15 AM 21.4 °F 8.5 °F 12.4 °F 68% 30.16 in 10.0 mi South 13.8 mph - N/A   Clear
2:35 AM 21.6 °F 8.8 °F 12.6 °F 68% 30.16 in 10.0 mi South 13.8 mph - N/A   Clear
2:55 AM 21.6 °F 8.8 °F 12.7 °F 69% 30.15 in 10.0 mi South 13.8 mph - N/A   Clear
3:15 AM 21.7 °F 9.0 °F 12.9 °F 69% 30.15 in 10.0 mi South 13.8 mph 18.4 mph N/A   Clear
3:35 AM 21.9 °F 10.4 °F 12.9 °F 68% 30.16 in 10.0 mi South 11.5 mph - N/A   Clear
3:55 AM 22.1 °F 10.6 °F 13.1 °F 68% 30.15 in 10.0 mi South 11.5 mph - N/A   Clear
4:15 AM 22.5 °F 11.1 °F 13.1 °F 67% 30.16 in 10.0 mi South 11.5 mph - N/A   Clear
4:35 AM 22.3 °F 12.2 °F 13.1 °F 68% 30.15 in 10.0 mi South 9.2 mph - N/A   Clear
4:55 AM 22.1 °F 11.3 °F 13.3 °F 69% 30.15 in 10.0 mi South 10.4 mph - N/A   Clear
5:15 AM 23.0 °F 11.7 °F 13.3 °F 66% 30.14 in 10.0 mi South 11.5 mph - N/A   Clear
5:35 AM 23.5 °F 10.8 °F 13.5 °F 65% 30.13 in 10.0 mi South 15.0 mph - N/A   Clear
5:55 AM 23.5 °F 9.9 °F 13.5 °F 65% 30.13 in 10.0 mi South 17.3 mph 20.7 mph N/A   Clear
6:15 AM 23.9 °F 9.9 °F 13.5 °F 64% 30.12 in 10.0 mi South 18.4 mph 25.3 mph N/A   Clear
6:35 AM 23.7 °F 9.7 °F 13.6 °F 65% 30.12 in 10.0 mi South 18.4 mph 25.3 mph N/A   Clear
6:55 AM 23.9 °F 10.8 °F 13.8 °F 65% 30.12 in 10.0 mi South 16.1 mph 24.2 mph N/A   Clear
7:15 AM 24.3 °F 10.0 °F 14.0 °F 65% 30.12 in 10.0 mi South 19.6 mph 24.2 mph N/A   Clear
7:35 AM 24.6 °F 9.7 °F 14.2 °F 65% 30.11 in 10.0 mi South 21.9 mph 26.5 mph N/A   Clear
7:55 AM 24.6 °F 9.4 °F 14.5 °F 66% 30.11 in 10.0 mi South 23.0 mph 27.6 mph N/A   Clear
8:15 AM 25.0 °F 10.6 °F 14.5 °F 65% 30.11 in 10.0 mi South 20.7 mph 28.8 mph N/A   Clear
8:35 AM 25.7 °F 11.9 °F 14.9 °F 64% 30.10 in 10.0 mi South 19.6 mph 31.1 mph N/A   Clear
8:55 AM 26.2 °F 12.6 °F 15.4 °F 64% 30.10 in 10.0 mi South 19.6 mph 26.5 mph N/A   Clear
9:15 AM 27.5 °F 13.2 °F 16.0 °F 62% 30.10 in 10.0 mi SSW 23.0 mph 29.9 mph N/A   Clear
9:35 AM 28.8 °F 15.2 °F 16.2 °F 59% 30.10 in 10.0 mi SSW 21.9 mph 31.1 mph N/A   Clear
9:55 AM 29.5 °F 17.2 °F 16.5 °F 59% 30.10 in 10.0 mi SSW 18.4 mph 32.2 mph N/A   Clear
10:15 AM 30.9 °F 17.8 °F 16.9 °F 56% 30.10 in 10.0 mi SSW 23.0 mph 33.4 mph N/A   Clear
10:35 AM 31.8 °F 20.2 °F 17.2 °F 55% 30.11 in 10.0 mi SSW 18.4 mph 27.6 mph N/A   Clear
10:55 AM 32.0 °F 20.5 °F 18.5 °F 58% 30.10 in 10.0 mi SSW 18.4 mph 25.3 mph N/A   Clear
11:15 AM 33.1 °F 21.5 °F 18.1 °F 54% 30.11 in 10.0 mi SSW 19.6 mph 25.3 mph N/A   Clear
11:35 AM 34.0 °F 24.2 °F 18.9 °F 54% 30.10 in 10.0 mi SSW 15.0 mph 24.2 mph N/A   Clear
11:55 AM 34.7 °F 24.0 °F 19.0 °F 53% 30.10 in 10.0 mi SSW 18.4 mph 26.5 mph N/A   Clear
12:15 PM 35.4 °F 24.9 °F 19.2 °F 52% 30.08 in 10.0 mi SSW 18.4 mph - N/A   Clear
12:35 PM 36.0 °F 26.7 °F 19.8 °F 52% 30.07 in 10.0 mi SSW 15.0 mph 23.0 mph N/A   Clear
12:55 PM 36.5 °F 24.9 °F 20.1 °F 52% 30.05 in 10.0 mi SSW 24.2 mph - N/A   Clear
1:15 PM 36.7 °F 26.9 °F 21.0 °F 53% 30.05 in 10.0 mi South 17.3 mph 25.3 mph N/A   Clear
1:35 PM 37.2 °F 28.7 °F 21.4 °F 53% 30.04 in 10.0 mi SSW 13.8 mph 29.9 mph N/A   Clear
1:55 PM 37.8 °F 28.0 °F 21.0 °F 51% 30.04 in 10.0 mi SSW 18.4 mph 26.5 mph N/A   Clear
2:15 PM 38.5 °F 29.6 °F 22.3 °F 52% 30.03 in 10.0 mi South 16.1 mph 23.0 mph N/A   Clear
2:35 PM 39.2 °F 31.2 °F 21.7 °F 50% 30.02 in 10.0 mi SSW 13.8 mph 23.0 mph N/A   Clear
2:55 PM 39.4 °F 31.4 °F 22.3 °F 50% 30.03 in 10.0 mi SSW 13.8 mph 23.0 mph N/A   Clear
3:15 PM 38.5 °F 29.2 °F 21.9 °F 51% 30.02 in 10.0 mi SSW 17.3 mph - N/A   Mostly Cloudy
3:35 PM 39.4 °F 30.7 °F 22.6 °F 51% 30.00 in 10.0 mi South 16.1 mph 23.0 mph N/A   Mostly Cloudy
3:55 PM 38.5 °F 30.3 °F 23.2 °F 54% 30.00 in 10.0 mi South 13.8 mph - N/A   Mostly Cloudy
4:15 PM 38.5 °F 28.6 °F 22.6 °F 53% 30.00 in 10.0 mi South 19.6 mph - N/A   Overcast
4:35 PM 38.3 °F 30.5 °F 23.5 °F 55% 30.00 in 10.0 mi South 12.7 mph - N/A   Overcast
4:55 PM 37.9 °F 30.0 °F 23.9 °F 57% 29.99 in 10.0 mi South 12.7 mph - N/A   Overcast
5:15 PM 37.8 °F 30.2 °F 23.7 °F 57% 29.99 in 10.0 mi South 11.5 mph - N/A   Overcast
5:35 PM 37.4 °F 29.8 °F 23.9 °F 58% 29.98 in 10.0 mi South 11.5 mph - N/A   Overcast
5:55 PM 37.0 °F 30.4 °F 24.8 °F 61% 29.99 in 10.0 mi South 9.2 mph - N/A   Overcast
6:15 PM 36.9 °F 30.7 °F 24.6 °F 61% 29.99 in 10.0 mi South 8.1 mph - N/A   Overcast
6:35 PM 36.9 °F 30.1 °F 24.8 °F 62% 29.99 in 10.0 mi South 9.2 mph - N/A   Overcast
6:55 PM 37.0 °F 31.6 °F 24.4 °F 60% 30.00 in 10.0 mi South 6.9 mph - N/A   Overcast
7:15 PM 36.5 °F 32.7 °F 25.2 °F 64% 30.00 in 10.0 mi South 4.6 mph - N/A   Overcast
7:35 PM 36.3 °F - 25.0 °F 63% 30.01 in 10.0 mi Calm Calm - N/A   Overcast
7:55 PM 36.1 °F - 25.3 °F 65% 30.02 in 10.0 mi Calm Calm - N/A   Overcast
8:15 PM 35.1 °F - 27.1 °F 73% 30.02 in 10.0 mi Calm Calm - N/A   Overcast
8:35 PM 34.2 °F - 28.4 °F 79% 30.02 in 10.0 mi Calm Calm - N/A   Overcast
8:55 PM 34.5 °F - 28.6 °F 79% 30.02 in 10.0 mi Calm Calm - N/A   Overcast
9:15 PM 33.8 °F 30.8 °F 28.8 °F 82% 30.02 in 10.0 mi SSE 3.5 mph - N/A   Overcast
9:35 PM 35.6 °F 31.7 °F 25.7 °F 67% 30.02 in 10.0 mi South 4.6 mph - N/A   Overcast
9:55 PM 36.0 °F 31.1 °F 25.7 °F 66% 30.02 in 10.0 mi South 5.8 mph - N/A   Overcast
10:15 PM 36.0 °F 32.1 °F 25.7 °F 66% 30.02 in 10.0 mi South 4.6 mph - N/A   Overcast
10:35 PM 34.3 °F 31.4 °F 28.2 °F 78% 30.03 in 10.0 mi SSE 3.5 mph - N/A   Overcast
10:55 PM 33.8 °F 29.6 °F 28.4 °F 81% 30.02 in 10.0 mi SSE 4.6 mph - N/A   Overcast
11:15 PM 34.0 °F 28.8 °F 28.2 °F 79% 30.02 in 10.0 mi SSE 5.8 mph - N/A   Overcast
11:35 PM 36.5 °F 33.9 °F 24.8 °F 63% 30.01 in 10.0 mi SSE 3.5 mph - N/A   Overcast
11:55 PM 34.7 °F 29.6 °F 27.1 °F 74% 30.01 in 10.0 mi SSE 5.8 mph - N/A   Overcast